www.pogodaiklimat.ru

Погода и климат >> Архив погоды >> Таиланд >> Сарабури


ПОГОДА в Сарабури

  • Прогноз погоды в Сарабури
  • Монитор погоды в Сарабури

АРХИВ ПОГОДЫ в Сарабури

Время (UTC), дата Ветер
(напр.,м/с)
 
Видим.   Явления Облачность Т
(С)
Тd
(С)
f
(%)
Тe
(С)
Тes
(С)
Комфортность P
(гПа)
Po
(гПа)
Тmin
(С)
Tmax
(С)
R
(мм)
R24
(мм)
S
(см)
00 9.09 штиль 0 10 км 10/3 600 м
[Sc Ac As Cs]
+25.8 +24.6 93 +36 +37 очень
душно
1008.2 993.3 +25.3
03 9.09 штиль 0 15 км 10/4 1000 м
[Sc Ac As Cs]
+28.3 +25.3 84 +41 +47 опасность
перегрева
1009.2 994.4
06 9.09 штиль 0 10 км 8/3 600 м
[Cu med, cong Ac lent Cs]
+31.5 +25.1 69 +45 +58 опасность
перегрева
1006.9 992.3
09 9.09 штиль 0 10 км 8/3 600 м
[Cu med, cong Ac lent Cs]
+31.7 +25.4 69 +46 +50 опасность
перегрева
1005.2 990.6
12 9.09 штиль 0 9000 м дымка 6/1 600 м
[Cu med, cong Ac lent Cs]
+29.0 +26.0 84 +44 +44 опасность
перегрева
1006.3 991.5 +32.5
15 9.09 штиль 0 9000 м дымка 10/3 600 м
[Cu med, cong Ac lent Cs]
+26.7 +24.4 87 +37 +37 очень
душно
1008.6 993.7
18 9.09 штиль 0 9000 м в посл. час дождь 10/4 600 м
[Sc Ac As Cs]
+24.7 +24.1 96 +34 +34 очень
душно
1008.8 993.9 4
21 9.09 штиль 0 9000 м дымка {дождь} 10/4 600 м
[Sc Ac As Cs]
+24.6 +24.2 98 +34 +34 очень
душно
1008.3 993.4 2
00 10.09 штиль 0 9000 м дымка {дождь} 10/9 300 м
[Sc Ac As]
+25.0 +24.3 96 +35 +35 очень
душно
1010.2 995.3 +24.0 5
03 10.09 штиль 0 8000 м дымка 10/8 300 м
[Sc Ac As]
+27.5 +23.9 81 +38 +39 очень
душно
1005.2 990.4
06 10.09 штиль 0 6000 м слаб. дождь 10/8 300 м
[Cu Sc Ac As]
+28.5 +25.7 85 +42 +44 опасность
перегрева
1008.6 993.9 4
09 10.09 штиль 0 8000 м дымка {дождь} 10/8 300 м
[Cu Sc Ac As]
+28.5 +25.7 85 +42 +43 опасность
перегрева
1007.4 992.7 0.2
12 10.09 штиль 0 7000 м дымка {дождь} 10/8 300 м
[Cu Sc Ac As]
+27.0 +25.9 94 +40 +40 очень
душно
1009.8 994.9 +28.7 5
15 10.09 штиль 0 6000 м слаб. дождь {гроза} 10/8 300 м
[Cu Sc Ac As]
+25.5 +24.8 96 +36 +36 очень
душно
1012.5 997.5 0.4
18 10.09 штиль 0 6000 м дымка {гроза, дождь} 10/8 300 м
[Cu Sc Ac As]
+24.7 +24.4 98 +34 +34 очень
душно
1012.3 997.3 1
21 10.09 штиль 0 6000 м в посл. час дождь 10/8 300 м
[Cu Sc Ac As]
+25.0 +23.5 91 +34 +34 очень
душно
1011.7 996.7 0.2
00 11.09 штиль 0 6000 м дымка {дождь} 10/8 300 м
[Cu Sc Ac As]
+24.5 +23.8 96 +33 +33 очень
душно
1013.7 998.7 +23.6 6
03 11.09 штиль 0 7000 м дымка 10/8 300 м
[Cu Sc Ac As]
+28.0 +24.4 81 +39 +41 очень
душно
1014.3 999.5
06 11.09 штиль 0 7000 м дымка 10/8 300 м
[Cu Sc Ac As]
+30.0 +24.7 73 +43 +44 опасность
перегрева
1012.4 997.7
09 11.09 штиль 0 8000 м дымка 10/8 300 м
[Cu Sc Ac As]
+29.5 +24.8 76 +42 +43 опасность
перегрева
1010.9 996.2
12 11.09 штиль 0 7000 м дымка 8/3 600 м
[Cu Sc Cs]
+27.0 +25.3 90 +39 +39 очень
душно
1011.6 996.7 +30.6
15 11.09 штиль 0 7000 м дымка 10/8 300 м
[Cu Sc Ac As]
+26.5 +25.6 95 +39 +39 очень
душно
1013.3 998.3
18 11.09 штиль 0 7000 м дымка 10/8 600 м
[Cu Sc Ac As Cs]
+26.5 +25.8 96 +39 +39 очень
душно
1013.3 998.3
21 11.09 штиль 0 7000 м дымка 8/5 600 м
[Sc Cs]
+24.8 +23.6 93 +34 +34 очень
душно
1012.0 997.0
00 12.09 штиль 0 9000 м дымка 6/3 600 м
[Cu Sc Cs]
+25.5 +24.0 91 +35 +36 очень
душно
1012.5 997.5 +24.1
03 12.09 штиль 0 9000 м дымка 5/3 600 м
[Cu Sc Ci fib]
+29.5 +25.2 78 +43 +56 опасность
перегрева
1012.8 998.0
06 12.09 штиль 0 12 км 3/3 600 м
[Cu Sc]
+31.7 +23.8 63 +43 +63 опасность
перегрева
1009.9 995.2
09 12.09 штиль 0 12 км 6/4 300 м
[Cb calv Cs]
+32.0 +24.9 66 +45 +50 опасность
перегрева
1007.3 992.7
12 12.09 штиль 0 10 км 3/3 600 м
[Cu hum]
+28.2 +25.1 83 +41 +41 опасность
перегрева
1008.6 993.8 +33.0
15 12.09 штиль 0 8000 м дымка 10/8 300 м
[Cu Sc Ac As]
+27.5 +25.4 88 +40 +40 очень
душно
1010.6 995.8
18 12.09 штиль 0 6000 м слаб. дождь 10/8 300 м
[Cu Sc Ac As]
+25.2 +24.8 98 +36 +36 очень
душно
1010.1 995.2 7
21 12.09 штиль 0 6000 м дымка {дождь} 10/8 300 м
[Cu Sc Ac As]
+24.5 +24.1 98 +34 +34 очень
душно
1010.0 995.0 19
00 13.09 штиль 0 9000 м дымка {дождь} 3/3 600 м
[Cu Sc Ci fib]
+24.5 +23.8 96 +33 +34 очень
душно
1010.0 995.0 +23.2 26
03 13.09 штиль 0 12 км 3/3 600 м
[Cu med, cong]
+29.5 +24.5 75 +42 +56 опасность
перегрева
1010.0 995.3
06 13.09 штиль 0 12 км 4/4 300 м
[Cb cap]
+31.2 +25.3 71 +45 +62 опасность
перегрева
1007.5 992.9
09 13.09 штиль 0 10 км 10/8 600 м
[Cu Sc Cs]
+32.3 +25.6 68 +47 +49 опасность
перегрева
1005.2 990.7
12 13.09 штиль 0 6000 м слаб. дождь 10/8 300 м
[Cu Sc Ac As]
+28.0 +25.1 84 +40 +40 очень
душно
1006.6 991.9 +32.5 0.6
15 13.09 штиль 0 7000 м дымка {дождь} 8/5 600 м
[Cu Sc Cs]
+26.2 +25.2 94 +38 +38 очень
душно
1008.6 993.7 2
18 13.09 штиль 0 7000 м дымка {дождь} 8/4 600 м
[Cu Sc Cs]
+25.5 +24.8 96 +36 +36 очень
душно
1008.3 993.4 2
21 13.09 штиль 0 8000 м дымка 3/3 600 м
[Sc]
+25.0 +24.3 96 +35 +35 очень
душно
1007.9 993.0
00 14.09 штиль 0 9000 м дымка 8/5 600 м
[Cu Sc Cs]
+25.0 +24.6 98 +35 +36 очень
душно
1008.5 993.5 +24.3
03 14.09 штиль 0 10 км 8/3 600 м
[Cu med, cong Ac lent Cs]
+29.1 +24.4 76 +41 +50 опасность
перегрева
1009.2 994.5
06 14.09 штиль 0 10 км 6/3 600 м
[Cu med, cong Ac lent Cs]
+31.4 +25.2 70 +45 +61 опасность
перегрева
1006.4 991.8
09 14.09 штиль 0 10 км 6/3 600 м
[Cu med, cong Ac lent Cs]
+32.0 +25.1 67 +46 +51 опасность
перегрева
1005.3 990.7
12 14.09 штиль 0 9000 м дымка 5/1 600 м
[Cu med, cong Ac lent Cs]
+28.7 +25.7 84 +43 +43 опасность
перегрева
1006.2 991.4 +33.3
15 14.09 штиль 0 8000 м дымка 6/1 600 м
[Cu med, cong Ac lent Cs]
+27.2 +25.8 92 +40 +40 очень
душно
1008.4 993.6
18 14.09 штиль 0 8000 м дымка 6/1 600 м
[Cu med, cong Ac lent Cs]
+26.0 +25.3 96 +38 +38 очень
душно
1008.4 993.5
21 14.09 штиль 0 8000 м дымка 6/1 600 м
[Cu med, cong Ac lent Cs]
+25.8 +25.1 96 +37 +37 очень
душно
1008.0 993.1
00 15.09 штиль 0 8000 м в посл. час дождь 9/4 600 м
[Cu Sc Ac As Cs]
+24.1 +23.4 96 +32 +33 очень
душно
1009.1 994.1 +23.0 0.8
03 15.09 штиль 0 10 км 6/3 600 м
[Cu med, cong Ac lent Cs]
+28.0 +25.0 84 +40 +51 опасность
солнечного
удара
1009.9 995.1
06 15.09 штиль 0 10 км 5/3 600 м
[Cu med, cong Ac lent Ci sp]
+31.0 +24.6 69 +44 +60 опасность
перегрева
1007.3 992.6
09 15.09 штиль 0 10 км 5/1 600 м
[Cu med, cong Ac lent Ci sp]
+32.0 +25.2 67 +46 +52 опасность
перегрева
1005.1 990.6
12 15.09 штиль 0 10 км 4/1 600 м
[Cu med, cong Ac lent Cs]
+28.7 +25.6 83 +42 +42 опасность
перегрева
1006.4 991.7 +32.8
15 15.09 штиль 0 9000 м дымка 4/1 600 м
[Cu med, cong Ac lent Cs]
+26.6 +25.0 91 +38 +38 очень
душно
1008.5 993.7
18 15.09 штиль 0 8000 м дымка 4/1 600 м
[Cu med, cong Ac lent Cs]
+25.8 +24.9 95 +37 +37 очень
душно
1007.5 992.6
21 15.09 штиль 0 8000 м дымка 10/4 600 м
[Cu Sc Ac und Cs]
+25.4 +24.7 96 +36 +36 очень
душно
1007.3 992.4

 

Местоположение метеостанции Сарабури (Таиланд): широта 14.52 долгота 100.92 высота над уровнем моря 91 м.

В архиве по умолчанию представлена погода в Сарабури за последнюю неделю. Архивные данные за месяц целиком и за предыдущие месяцы, начиная с января 2011 года, Вы можете получить, выбрав интересующий диапазон дат из раскрывающегося списка и нажав кнопку "Ввод!".


*Определитесь, кто Вы:
робот инопланетянин человек

Внимание! Время в таблицах - всемирное. Для получения местного времени необходимо прибавить поправку, которая равна 7 ч.

Смотрите также архив погоды в соседних городах и на ближайших метеорологических станциях:

Погода в Аюттхая (Таиланд) (22 км)
Погода в Пакчонг Агромете (Таиланд) (45 км)
Погода в Лопбури (Таиланд) (46 км)
Погода в Патхумтхани (Таиланд) (57 км)
Погода в Лаем-Чабанге (Таиланд) (62 км)
Погода в Прачинбури (Таиланд) (71 км)
Погода в Дон Муанг (Таиланд) (75 км)
Погода в Суфанбури (Таиланд) (85 км)
Погода в Буа Чум (Таиланд) (88 км)
Погода в Аэропорту Суварнабхуми (Таиланд) (95 км)

Пояснения к столбцам:

Ветер - указаны скорость ветра в м/с - средняя за 10 мин, порывы в срок и между сроками (в фигурных скобках) и направление, откуда дует ветер: С - северный, СВ - северо-восточный, В - восточный, ЮВ - юго-восточный, Ю - южный, ЮЗ - юго-западный, З - западный, СЗ - северо-западный.
Видимость - горизонтальная дальность видимости в метрах или километрах. При видимости от 1 до 10 км при отсутствии осадков обычно наблюдается дымка, при ухудшении видимости до 1 км и менее - туман. В сухую погоду видимость может ухудшаться дымом, пылью или мглою.
Явления - указаны атмосферные явления, наблюдавшиеся в срок или в последний час перед сроком; фигурными скобками обозначены явления, наблюдавшиеся между сроками (за 1-3 часа до срока); квадратными скобками обозначены град или гололедные отложения с указанием их диаметра в мм.
Облачность - указаны через наклонную черту общая и нижняя облачность в баллах и высота нижней границы облаков в метрах; квадратными скобками обозначены формы облаков: Ci - перистые, Cs - перисто-слоистые, Cc - перисто-кучевые, Ac - высококучевые, As - высокослоистые, Sc - слоисто-кучевые, Ns - слоисто-дождевые, Cu - кучевые, Cb - кучево-дождевые. Подробнее классификацию облаков см. в Атласе облаков (PDF).
T - Температура воздуха - температура, измеренная на высоте 2 м над землей.
Td - Температура точки росы - температура, при понижении до которой содержащийся в воздухе водяной пар достигнет насыщения.
f - Относительная влажность воздуха - влажноcть воздуха, измеренная на высоте 2 м над землей.
Te - Эффективная температура - температура, которую ощущает одетый по сезону человек в тени. Характеристика душности погоды. При расчете учитывается влияние влажности воздуха и скорости ветра на теплоощущения человека.
Tes - Эффективная температура на солнце - температура, которую ощущает человек, с поправкой на солнечный нагрев. Характеристика знойности погоды. Зависит от высоты солнца над горизонтом, облачности и скорости ветра. Ночью, в пасмурную погоду, а также при ветре 12 м/с и более поправка равна нулю.
P - Атмосферное давление - приведенное к уровню моря атмосферное давление.
Po - Атмосферное давление - измеренное на уровне метеостанции атмосферное давление.
Tmin - Минимальная температура - минимум температуры воздуха на высоте 2 м над землей.
Tmax - Максимальная температура - максимум температуры воздуха на высоте 2 м над землей.
R - Количество осадков - Количество выпавших осадков за период времени, мм. При наведении курсора мыши на число - период времени, за который выпало указанное количество осадков.
R24 - Количество осадков - Количество выпавших осадков за 24 часа, мм.
S - Снежный покров - Высота снежного покрова, см. При наведении курсора мыши на число - состояние снежного покрова и степень покрытия местности в баллах.